CAPE
776 868 1713 1285 1376 1370 1174 1006 1047 1198 1474 1592 1643 1620 1520 1564 1636 1612 1695 1730 1673 1426 1218 1123 1186 1133 1218 1226 1187 1139 1221 1260
652 812 1133 1628 2114 1293 1092 966 888 1075 1287 1515 1539 1403 1375 1451 1411 1485 1503 1580 1396 1262 1037 1003 1165 1171 1141 1198 1247 1141 1052 1219
101 930 1280 998 1479 1740 1295 952 853 863 1086 1365 1422 1148 1242 1354 1137 1289 1261 1302 1142 1016 917 881 1136 1194 1168 1167 1184 1101 1057 1167
18 106 506 1235 1108 1008 1266 1262 878 847 892 1135 1164 1058 1136 1227 1029 1103 1037 1057 949 835 823 844 930 1066 1053 1275 1221 1002 1024 1089
0 1 98 594 1452 1186 1305 1468 1042 969 956 1027 1002 1050 1124 1173 1107 1034 921 823 752 718 702 750 915 1026 1057 1305 1090 917 938 1028
0 0 0 54 640 1231 1151 1205 1505 969 986 954 855 897 1051 1049 1011 1044 847 608 506 586 646 624 811 1009 972 1110 975 833 847 959
0 5 6 0 218 977 1274 1155 1098 1452 888 1028 773 790 760 736 1101 962 830 776 279 395 550 614 670 925 963 820 763 937 812 877
0 0 1 3 7 177 1037 1117 1152 1376 977 954 944 700 535 568 583 727 815 757 277 176 386 553 650 771 819 676 467 713 913 827
0 0 0 0 0 0 52 964 1229 1114 1379 1241 973 911 532 485 475 663 688 552 263 134 163 396 573 653 758 548 408 521 809 804
0 0 0 0 0 0 0 36 844 1171 1244 1244 1218 885 657 489 438 411 564 822 207 133 89 142 433 624 768 405 399 593 695 856
0 0 0 0 0 0 0 0 15 674 1157 1179 1278 1172 835 552 415 267 598 868 234 141 53 24 154 627 726 456 254 590 814 864
0 0 0 0 0 0 0 0 0 3 136 835 1223 1382 1134 954 625 413 396 709 462 111 20 0 30 364 659 536 126 596 821 877
0 0 0 0 0 0 0 0 0 0 0 27 715 915 1131 868 876 750 370 287 340 220 74 22 0 55 539 543 181 385 758 727
0 0 0 0 0 0 0 0 0 0 0 0 124 490 791 939 768 845 692 397 236 235 127 46 1 7 89 473 168 34 332 364
0 0 0 0 0 0 0 0 0 0 0 0 0 78 402 604 521 706 753 667 682 447 142 73 33 1 3 124 89 19 67 86
0 0 0 0 0 0 0 0 0 0 0 0 0 0 12 333 194 111 397 343 471 471 347 101 62 36 0 1 0 1 34 17
0 0 0 0 0 0 0 0 0 0 0 0 0 0 0 0 0 5 12 122 252 365 367 302 77 52 18 0 0 0 13 0
0 0 0 0 0 0 0 0 0 0 0 0 0 0 7 4 1 3 0 15 1 192 269 329 216 70 52 48 0 0 0 0
0 0 0 0 0 0 0 0 0 0 0 0 0 0 2 7 11 3 0 0 0 0 14 252 355 212 67 44 40 0 0 0
0 0 0 0 0 0 0 0 0 0 0 0 0 0 0 3 6 8 2 0 4 5 4 38 166 469 175 70 56 43 0 0
CIN
-108 -73 -11 -74 -157 -160 -188 -222 -265 -266 -206 -149 -112 -92 -51 -73 -36 -44 -31 -28 -43 -99 -113 -76 -68 -54 -45 -38 -36 -39 -33 -20
-66 -86 -50 -2 -0 -74 -156 -169 -212 -208 -223 -167 -128 -118 -60 -75 -63 -47 -49 -36 -73 -115 -144 -100 -60 -32 -38 -30 -32 -42 -54 -24
-106 -38 -12 -71 -15 -0 -31 -135 -158 -170 -179 -154 -123 -145 -89 -45 -101 -76 -66 -59 -94 -130 -151 -127 -44 -23 -13 -13 -24 -35 -42 -37
-31 -81 -62 -16 -26 -8 -0 -7 -69 -123 -156 -161 -147 -153 -120 -73 -93 -92 -77 -70 -103 -137 -152 -125 -78 -46 -28 -13 -17 -47 -42 -45
-0 -3 -94 -61 -0 -8 -0 -0 -46 -39 -97 -137 -157 -136 -102 -69 -65 -69 -76 -87 -114 -122 -136 -143 -83 -66 -40 -13 -19 -61 -52 -45
-3 -0 -0 -292 -53 -0 -0 -0 -0 -50 -31 -67 -125 -137 -97 -102 -100 -73 -89 -138 -163 -149 -147 -167 -100 -59 -49 -21 -26 -55 -56 -46
-0 -18 -14 -4 -129 -11 -0 -0 -0 -8 -44 -24 -21 -114 -113 -125 -87 -125 -103 -97 -226 -193 -160 -147 -134 -68 -48 -62 -45 -36 -48 -47
-0 -0 -6 -23 -21 -118 -1 -0 -0 -0 -30 -32 -30 -23 -91 -140 -119 -143 -140 -116 -217 -260 -198 -156 -125 -94 -69 -72 -88 -95 -30 -53
-0 -0 -0 -0 -0 -0 -76 -3 -0 -1 -0 -0 -20 -18 -28 -41 -118 -107 -148 -165 -215 -278 -252 -172 -126 -106 -69 -90 -186 -139 -58 -44
-0 -0 -0 -0 -0 -0 -0 -54 -5 -0 -0 -0 -1 -27 -22 -29 -48 -82 -132 -82 -240 -269 -274 -271 -151 -109 -72 -108 -190 -91 -69 -34
-0 -0 -0 -0 -0 -0 -0 -0 -27 -20 -0 -0 -1 -5 -20 -45 -42 -43 -39 -61 -200 -264 -298 -370 -265 -99 -78 -88 -220 -94 -37 -20
-0 -0 -0 -0 -0 -0 -0 -0 -0 -9 -41 -0 -0 -0 -0 -9 -27 -24 -48 -26 -99 -46 -104 -13 -411 -141 -50 -59 -193 -62 -30 -13
-0 -0 -0 -0 -0 -0 -0 -0 -0 -0 -0 -139 -0 -0 -0 -0 -0 -0 -18 -62 -114 -96 -49 -21 -0 -265 -45 -43 -100 -79 -12 -23
-0 -0 -0 -0 -0 -0 -0 -0 -0 -0 -0 -0 -39 -0 -0 -1 -1 -0 -0 -19 -78 -63 -44 -29 -5 -224 -187 -49 -114 -210 -79 -96
-0 -0 -0 -0 -0 -0 -0 -0 -0 -0 -0 -0 -0 -51 -0 -0 -0 -0 -0 -2 -3 -64 -37 -43 -24 -5 -117 -170 -179 -291 -265 -233
-0 -0 -0 -0 -0 -0 -0 -0 -0 -0 -0 -0 -0 -0 -11 -0 -1 -0 -0 -0 -0 -7 -70 -52 -34 -15 -0 -56 -113 -86 -366 -331
-0 -0 -0 -0 -0 -0 -0 -0 -0 -0 -0 -0 -0 -0 -0 -0 -0 -0 -1 -0 -0 -0 -19 -26 -43 -33 -10 -2 -0 -0 -386 -0
-0 -0 -0 -0 -0 -0 -0 -0 -0 -0 -0 -0 -0 -0 -0 -0 -0 -1 -0 -2 -1 -3 -0 -6 -25 -32 -19 -10 -0 -0 -0 -0
-0 -0 -0 -0 -0 -0 -0 -0 -0 -0 -0 -0 -0 -0 -0 -0 -0 -0 -0 -0 -0 -0 -2 -0 -8 -5 -43 -16 -18 -0 -0 -0
-0 -0 -0 -0 -0 -0 -0 -0 -0 -0 -0 -0 -0 -0 -0 -0 -0 -0 -0 -0 -20 -3 -0 -15 -15 -0 -6 -41 -15 -19 -0 -0
Wind_Speed
48 46 42 30 28 27 30 32 33 35 33 37 31 31 25 25 26 24 21 23 25 25 26 26 23 19 15 14 12 9 6 7
55 52 49 47 37 30 32 33 32 31 33 35 31 30 23 22 24 23 21 22 23 23 22 24 23 16 13 13 12 10 7 8
59 59 55 50 47 43 36 36 34 33 34 32 30 26 22 19 22 23 22 20 22 20 20 19 19 17 15 13 13 7 8 10
nan 62 59 55 50 43 39 25 40 34 35 32 26 25 28 17 21 23 23 20 20 19 17 17 19 12 12 13 11 9 11 11
nan nan nan 62 57 54 56 48 48 38 36 34 31 29 33 18 22 19 18 18 16 17 14 13 14 13 12 11 14 14 15 15
nan nan nan nan 61 61 58 52 48 44 40 36 38 31 29 22 22 22 18 17 18 17 16 16 14 14 14 13 14 17 17 17
nan nan nan nan 57 55 55 50 43 47 51 47 42 34 29 30 22 24 20 18 18 18 19 18 16 15 14 14 14 17 18 19
nan nan nan nan nan 56 51 48 46 46 53 49 44 42 35 32 28 27 24 20 20 21 22 21 19 17 17 14 14 16 18 19
nan nan nan nan nan nan nan 58 56 56 51 46 42 45 41 34 36 28 30 24 24 26 28 28 26 22 19 17 17 17 19 20
nan nan nan nan nan nan nan nan 54 56 43 50 46 45 46 40 37 31 33 30 29 27 nan 29 26 22 23 21 19 19 19 21
nan nan nan nan nan nan nan nan nan 55 53 43 48 46 46 45 39 37 32 37 33 30 nan nan 29 27 27 30 26 21 22 24
nan nan nan nan nan nan nan nan nan nan 55 50 43 51 50 44 46 43 38 39 40 33 nan nan nan 33 35 36 35 28 26 25
nan nan nan nan nan nan nan nan nan nan nan nan 53 51 44 45 47 47 45 43 38 38 nan nan nan nan 45 42 42 38 28 27
nan nan nan nan nan nan nan nan nan nan nan nan 58 53 50 39 44 49 48 47 45 44 39 nan nan nan nan 44 43 nan 31 26
nan nan nan nan nan nan nan nan nan nan nan nan nan nan 60 49 40 52 52 52 50 47 43 nan nan nan nan 46 nan nan nan nan
nan nan nan nan nan nan nan nan nan nan nan nan nan nan nan 59 67 72 72 55 54 52 48 43 nan nan nan nan nan nan nan nan
nan nan nan nan nan nan nan nan nan nan nan nan nan nan nan nan nan nan nan 64 57 54 51 51 nan nan nan nan nan nan nan nan
nan nan nan nan nan nan nan nan nan nan nan nan nan nan nan nan nan nan nan nan nan 68 55 51 49 nan nan nan nan nan nan nan
nan nan nan nan nan nan nan nan nan nan nan nan nan nan nan nan nan nan nan nan nan nan nan 54 53 50 nan nan nan nan nan nan
nan nan nan nan nan nan nan nan nan nan nan nan nan nan nan nan nan nan nan nan nan nan nan nan 55 54 47 nan nan nan nan nan
Wind_Direction
268 280 275 246 269 271 275 284 289 293 289 294 300 302 296 313 314 315 313 309 305 309 316 323 317 315 310 294 290 282 236 200
263 262 261 278 269 252 263 275 277 281 284 288 292 289 282 304 306 307 306 307 305 307 314 319 317 310 301 293 279 281 234 214
261 260 257 251 275 276 266 266 268 270 273 273 276 290 259 293 297 302 303 303 302 303 306 312 310 299 294 287 274 208 216 193
nan 256 254 251 261 272 275 235 252 252 259 259 261 274 275 278 285 297 301 297 294 297 296 301 299 281 277 280 220 221 195 191
nan nan nan 251 255 254 274 267 259 242 245 252 250 260 276 260 272 273 277 285 273 278 270 272 279 281 270 259 228 214 196 190
nan nan nan nan 254 258 258 271 252 254 240 240 243 247 256 251 265 270 270 267 273 267 254 252 264 277 281 262 244 224 205 196
nan nan nan nan 249 253 255 258 267 265 246 245 226 235 244 256 257 261 264 267 265 260 255 246 255 266 265 266 257 233 222 207
nan nan nan nan nan 246 252 255 253 276 247 237 244 231 223 246 249 256 256 260 262 252 250 246 245 251 259 261 252 244 232 223
nan nan nan nan nan nan nan 254 255 259 248 238 245 243 233 220 237 247 251 248 257 249 243 240 235 240 251 255 252 244 237 231
nan nan nan nan nan nan nan nan 249 249 244 237 239 238 243 238 227 237 245 242 244 246 nan 244 237 239 244 243 248 242 242 232
nan nan nan nan nan nan nan nan nan 244 247 244 251 241 237 245 236 234 233 242 240 241 nan nan 237 232 239 245 244 237 236 233
nan nan nan nan nan nan nan nan nan nan 241 242 231 253 254 248 244 235 238 233 240 235 nan nan nan 235 229 235 238 233 231 232
nan nan nan nan nan nan nan nan nan nan nan nan 229 227 256 259 244 245 237 235 237 245 nan nan nan nan 233 222 230 233 224 227
nan nan nan nan nan nan nan nan nan nan nan nan 223 231 228 248 250 247 247 238 235 239 239 nan nan nan nan 235 229 nan 226 226
nan nan nan nan nan nan nan nan nan nan nan nan nan nan 223 220 229 243 243 240 235 239 240 nan nan nan nan 237 nan nan nan nan
nan nan nan nan nan nan nan nan nan nan nan nan nan nan nan 219 232 216 221 232 232 233 238 237 nan nan nan nan nan nan nan nan
nan nan nan nan nan nan nan nan nan nan nan nan nan nan nan nan nan nan nan 218 225 231 234 238 nan nan nan nan nan nan nan nan
nan nan nan nan nan nan nan nan nan nan nan nan nan nan nan nan nan nan nan nan nan 212 228 238 237 nan nan nan nan nan nan nan
nan nan nan nan nan nan nan nan nan nan nan nan nan nan nan nan nan nan nan nan nan nan nan 229 235 234 nan nan nan nan nan nan
nan nan nan nan nan nan nan nan nan nan nan nan nan nan nan nan nan nan nan nan nan nan nan nan 232 233 231 nan nan nan nan nan